CAPE
2268 1958 1248 1163 1341 1156 1035 1184 1722 1905 2035 2349 2294 2354 1778 1700 1532 1922 1939 2082 1682 1437
2337 2209 1404 1558 1830 1416 1572 1449 1756 2013 2271 2325 1984 2212 1572 1359 1406 1353 1368 1515 1617 1599
2079 2198 2078 1909 2058 1639 1595 1499 1908 2169 2136 1755 1507 1964 1673 1585 1417 1596 1423 1218 1603 1839
1893 1867 2087 1664 1932 1676 1207 1335 1424 2321 2020 2011 1300 1389 1803 1732 1379 1351 1222 1169 1543 1523
1965 1970 1794 1742 1628 1937 1546 1434 2026 2132 2017 2039 1904 1964 1550 1443 1123 1111 1252 1429 1432 1419
1981 2072 1878 1768 1952 1758 1984 2100 1962 1931 1792 1206 1363 1587 1398 1509 1586 1546 1117 1199 1328 1361
1969 2078 1876 1829 2123 1938 1988 2036 1933 2084 1481 1194 1190 1443 1537 1561 1542 1484 1256 1486 1743 1731
1879 2076 2150 2086 2245 1844 2063 1975 1906 1997 1577 1368 1444 1406 1814 1685 1615 1876 1667 1610 1803 1644
2323 2245 2302 2457 2586 2475 2227 1977 1873 1919 1606 1502 1235 1 0 33 1399 1732 1767 1806 1759 1789
1914 1453 1760 1889 1797 2152 1889 1471 1674 1850 1745 1695 1547 0 0 0 1103 1415 1365 1138 1550 1527
915 818 833 1252 1490 1145 1280 1561 1679 1527 1475 918 0 0 0 6 965 791 569 337 342 582
692 593 747 602 558 467 459 282 173 408 387 133 6 0 1 0 487 394 110 6 3 97
175 32 123 172 115 26 12 7 7 6 7 1 8 1 1 0 116 118 4 6 6 0
146 172 87 54 3 3 5 2 2 4 5 4 1 3 1 0 17 13 4 1 0 0
CIN
-0 -0 -0 -4 -0 -0 -0 -0 -0 -0 -0 -0 -0 -0 -0 -0 -0 -0 -0 -0 -0 -0
-0 -0 -0 -0 -0 -0 -0 -0 -4 -0 -1 -0 -0 -0 -0 -0 -0 -2 -0 -0 -0 -1
-0 -0 -0 -0 -1 -0 -0 -0 -0 -1 -2 -0 -6 -0 -0 -0 -0 -0 -0 -0 -0 -0
-0 -0 -0 -0 -0 -0 -1 -6 -0 -0 -2 -0 -2 -0 -0 -0 -0 -0 -0 -2 -0 -0
-1 -0 -0 -0 -0 -0 -0 -0 -0 -0 -3 -2 -0 -0 -6 -0 -0 -0 -0 -0 -0 -0
-0 -0 -0 -0 -0 -0 -0 -0 -0 -0 -0 -2 -0 -0 -0 -0 -0 -0 -0 -0 -0 -0
-5 -0 -0 -0 -0 -0 -0 -0 -0 -0 -0 -0 -2 -0 -0 -0 -0 -0 -0 -0 -0 -0
-5 -0 -0 -0 -0 -2 -0 -0 -0 -0 -0 -0 -0 -0 -0 -0 -0 -0 -0 -0 -0 -0
-0 -0 -0 -0 -0 -0 -0 -0 -0 -0 -0 -0 -0 -0 -0 -170 -0 -0 -0 -0 -0 -0
-0 -11 -3 -2 -4 -0 -0 -0 -0 -0 -0 -0 -0 -0 -0 -0 -1 -0 -0 -0 -0 -0
-17 -26 -29 -2 -0 -9 -3 -0 -0 -0 -0 -0 -0 -0 -0 -76 -0 -0 -1 -14 -21 -4
-0 -3 -0 -5 -9 -20 -20 -33 -42 -5 -6 -31 -0 -0 -0 -0 -0 -0 -22 -24 -3 -32
-3 -39 -8 -5 -12 -64 -69 -0 -0 -0 -0 -0 -0 -0 -0 -0 -3 -1 -0 -0 -0 -0
-0 -0 -0 -2 -0 -0 -0 -0 -0 -0 -0 -0 -0 -0 -0 -0 -10 -23 -0 -0 -0 -0
Wind_Speed
11 7 8 9 8 7 4 8 5 7 6 6 5 5 3 5 5 4 2 3 2 4
11 10 7 6 6 6 4 4 7 6 7 6 6 6 4 4 4 1 2 3 2 5
12 11 9 8 8 6 3 6 4 8 6 6 6 6 6 6 6 4 5 5 1 5
12 13 11 9 8 8 6 5 7 6 5 6 5 5 6 5 3 5 4 4 5 5
12 12 11 10 9 9 8 7 7 7 7 7 5 4 6 6 4 4 6 6 6 5
12 13 12 11 10 10 9 9 7 6 6 5 4 5 6 7 5 6 6 6 7 6
12 12 12 11 9 9 9 9 8 7 7 6 6 7 7 7 6 6 6 6 7 6
12 11 11 11 10 9 9 9 9 8 8 7 7 7 4 6 5 5 6 7 6 5
10 10 11 10 10 11 9 9 9 9 8 8 8 7 4 6 6 6 6 5 5 5
9 10 9 8 6 9 8 9 10 10 9 8 5 1 4 6 6 4 2 2 3 4
9 8 5 5 7 5 5 5 5 6 6 5 4 1 3 7 4 3 4 4 3 2
6 7 8 7 6 4 5 5 4 3 6 6 6 6 5 7 4 5 5 6 7 3
8 7 5 7 6 4 6 6 6 7 6 7 5 7 2 3 1 3 4 4 5 10
7 8 6 5 4 5 7 7 6 7 6 6 5 4 3 2 3 3 3 3 4 4
Wind_Direction
211 213 215 211 283 223 208 188 151 203 202 198 199 203 202 224 258 102 244 261 333 312
207 221 231 243 208 222 241 198 196 210 215 207 223 222 191 225 231 158 256 261 232 283
206 209 215 229 230 245 294 274 213 213 216 215 231 240 221 209 211 219 242 260 95 276
206 206 208 220 217 227 226 228 249 243 238 228 216 217 222 249 271 210 249 280 252 293
205 204 206 214 220 204 225 224 226 234 238 247 248 216 211 236 288 225 241 249 269 275
205 202 209 211 215 221 207 216 222 231 243 242 247 239 225 250 249 253 260 262 266 261
205 211 215 212 218 220 221 223 214 207 227 240 246 247 233 217 245 258 262 267 269 268
205 208 216 215 212 219 221 221 227 221 220 224 227 234 240 250 257 255 263 264 264 273
200 202 210 219 208 220 215 221 234 232 228 225 236 81 285 285 261 267 280 296 292 155
185 183 193 197 226 229 218 226 228 236 236 227 198 130 261 260 256 254 264 326 277 145
160 173 158 167 194 199 219 226 215 211 202 175 97 6 279 241 161 134 103 80 67 67
168 175 162 156 165 140 163 156 145 157 150 155 129 29 345 287 164 133 109 77 45 15
168 161 148 145 134 109 113 110 105 90 86 46 87 19 346 347 16 150 105 75 51 33
176 170 162 128 112 111 114 100 88 86 72 68 37 28 327 139 147 152 124 99 66 33